Ozark, AL

1:10 AM CST on January 18, 2018 (GMT -0600)
Cairns Army Air Field

Weather History for KOZR - May, 2013

Change the Weather History Date:

Tuesday, May 28, 2013

  Actual Average Record
Temperature  
Mean Temperature 77 °F -  
Max Temperature 92 °F 83 °F 95 °F (2006)
Min Temperature 63 °F 63 °F 61 °F (2007)
Cooling Degree Days 12    
Growing Degree Days 27 (Base 50)    
Moisture  
Dew Point 61 °F    
Average Humidity 61    
Maximum Humidity 89    
Minimum Humidity 33    
Precipitation  
Precipitation 0.00 in - - ()
Sea Level Pressure  
Sea Level Pressure 30.11 in    
Wind  
Wind Speed 5 mph (ESE)    
Max Wind Speed 10 mph    
Max Gust Speed -    
Visibility 10 miles    
Events      
Averages and records for this station are not official NWS values.
T = Trace of Precipitation, MM = Missing Value Source: NWS Daily Summary

Daily Weather History Graph

Daily Weather History Graph

Search for Another Location

Airport or City:

Trip Planner

Search our weather history database for the weather conditions in past years. The results will help you decide how hot, cold, wet, or windy it might be!

Date:

Astronomy

May. 28, 2013 Rise Set
Actual Time 5:40 AM CDT 7:40 PM CDT
Civil Twilight 5:13 AM CDT 8:07 PM CDT
Nautical Twilight 4:39 AM CDT 8:40 PM CDT
Astronomical Twilight 4:04 AM CDT 9:16 PM CDT
Moon 11:11 PM CDT (5/28) 9:22 AM CDT (5/28)
Length of Visible Light 14h 54m
Length of Day
13h 59m
Waning Gibbous, 82% of the Moon is Illuminated
May 28
Waning Gibbous
May 31
Last Quarter
Jun 8
New
Jun 16
First Quarter
Jun 23
Full

Hourly Weather History & Observations

Time (CDT) Temp. Heat Index Dew Point Humidity Pressure Visibility Wind Dir Wind Speed Gust Speed Precip Events Conditions
12:58 AM 66.0 °F - 60.4 °F 82% 30.12 in 10.0 mi ENE 3.5 mph - N/A   Clear
1:58 AM 64.8 °F - 60.8 °F 87% 30.12 in 10.0 mi ENE 2.3 mph - N/A   Clear
2:58 AM 63.7 °F - 60.3 °F 89% 30.13 in 10.0 mi ENE 4.6 mph - N/A   Clear
3:58 AM 64.6 °F - 61.3 °F 89% 30.12 in 10.0 mi East 4.6 mph - N/A   Mostly Cloudy
4:58 AM 65.3 °F - 61.5 °F 88% 30.13 in 10.0 mi East 4.6 mph - N/A   Clear
5:58 AM 66.6 °F - 61.7 °F 84% 30.14 in 10.0 mi ESE 3.5 mph - N/A   Clear
6:58 AM 66.2 °F - 62.1 °F 86% 30.14 in 10.0 mi East 5.8 mph - N/A   Clear
7:58 AM 72.7 °F - 63.9 °F 74% 30.14 in 10.0 mi ESE 6.9 mph - N/A   Clear
8:58 AM 77.5 °F - 65.7 °F 67% 30.14 in 10.0 mi SE 8.1 mph - N/A   Clear
9:58 AM 81.0 °F 82.9 °F 65.3 °F 59% 30.15 in 10.0 mi South 4.6 mph - N/A   Clear
10:58 AM 84.7 °F 86.1 °F 64.2 °F 50% 30.14 in 10.0 mi Variable 3.5 mph - N/A   Clear
11:58 AM 87.4 °F 88.0 °F 62.4 °F 43% 30.13 in 10.0 mi East 6.9 mph - N/A   Partly Cloudy
12:58 PM 88.2 °F 88.1 °F 61.0 °F 40% 30.12 in 10.0 mi ESE 9.2 mph - N/A   Mostly Cloudy
1:58 PM 87.8 °F 87.6 °F 61.0 °F 40% 30.10 in 10.0 mi Variable 6.9 mph - N/A   Mostly Cloudy
2:58 PM 89.6 °F 89.5 °F 60.6 °F 38% 30.08 in 10.0 mi East 8.1 mph - N/A   Partly Cloudy
3:58 PM 91.0 °F 90.0 °F 58.5 °F 33% 30.07 in 10.0 mi SE 6.9 mph - N/A   Partly Cloudy
4:58 PM 89.8 °F 88.9 °F 58.5 °F 35% 30.07 in 10.0 mi East 9.2 mph - N/A   Mostly Cloudy
5:58 PM 89.6 °F 88.1 °F 57.0 °F 33% 30.05 in 10.0 mi East 10.4 mph - N/A   Clear
6:58 PM 86.9 °F 86.1 °F 58.1 °F 38% 30.06 in 10.0 mi ESE 6.9 mph - N/A   Partly Cloudy
7:58 PM 83.7 °F 83.1 °F 57.4 °F 41% 30.07 in 10.0 mi ESE 5.8 mph - N/A   Mostly Cloudy
8:58 PM 79.0 °F - 59.9 °F 52% 30.10 in 10.0 mi SSE 4.6 mph - N/A   Clear
9:58 PM 76.1 °F - 63.1 °F 64% 30.11 in 10.0 mi SSW 5.8 mph - N/A   Clear
10:58 PM 72.9 °F - 66.2 °F 80% 30.12 in 10.0 mi Calm Calm - N/A   Clear
11:58 PM 70.2 °F - 61.2 °F 73% 30.11 in 10.0 mi NE 4.6 mph - N/A   Clear